DELTA 1 DEB, 7194

Orbit data source: Space-Track

DELTA 1 DEB, 7194 is space debris in LEO originally from a launch on Tue, 06 Nov 1973 UTC launched from the Air Force Western Test Range (AFWTR). Debris objects in space refer to the collection of defunct objects orbiting the Earth. Examples of debris include non-operational satellites, rocket bodies, and fragments generated from explosions, collisions, or faulty payload assembly.

Loading next visibility...
Identifier
7194, 1973-086FC
Orbit
LEO
Country
Flag of USUS
Related business
Manufacturer
Unknown
Mission
Spacecraft
Bus & Motor
Unknown
Mass
Unknown
Launch date (UTC)
1973-11-06 (52 years ago)
Launch vehicle
Unknown
Launch site
Air Force Western Test Range (AFWTR)
Object type
Payload
Rocket body
Debris
Shape & HBR
Unknown shape, 0.1 m
Radar Cross Section
Small (<0.1 m²)

Expand to show TLE details & history
Last TLE update: 1 day ago

TLE from 1 day ago
0 DELTA 1 DEB
1 07194U 73086FC  25292.11704971 -.00000141  00000-0 -16663-2 0  9997
2 07194 102.7007   1.2004 0541406 164.2345 230.4852 11.49921608176157
Epoch: 2025-10-19T02:48Z
TLE epoch observation values (Epoch: 2025-10-19T02:48:33.094Z)
Latitude
29.36796°
Longitude
-76.02909°
Altitude
2,215.804 km
Speed
6.69 km/s
True Right ascension
23h 35m 47s
True Declination
29° 14' 46"
Sunlit
Object was in full shadow at epoch
Visualization orbit readout
Latitude
Unknown
Longitude
Unknown
Altitude
Unknown
Speed
Unknown
Apparent Right ascension
Unknown
Apparent Declination
Unknown
Sunlit
N/A
Visualization observer readout
Local Sidereal Time
07:09:47
Azimuth
Unknown
Elevation
Unknown
Doppler factor
Unknown
Orbital elements
Apogee altitude
2,359.668 km
Perigee altitude
1,462.122 km
Semi-major axis
8,289.032 km
Eccentricity
0.05414
Inclination
102.7007°
RAAN
1.2004°
Arg. of periapsis
164.2345°
True anomaly
225.90178°
Mean anomaly
230.4852°
Eccentric anomaly
228.17366°
Mean motion
2.87599 °/min
Orbital period
125.17 mins
BSTAR
-0.0016663
Loading maneuver chart data...
Computing Atmospheric mass density...
Loading historical data...
Loading historical data...
Loading historical data...
Loading historical data...
Loading historical data...
Loading historical data...
Loading historical data...

Documentation

Showing up to 5 results
|